This demonstration page uses our WeatherBlox Daily Observations layout. Learn more.

41.55636, -103.73856

Hourly Observations for April 28, 2015

Temp ( °F °C ) Dew Point ( °F °C ) Humidity (%) Winds ( mph kmh ) Pressure ( in mb ) Visibility ( mi km ) Precip ( " mm )
12:53 am 00:53 Cloudy 46 7.8 41 5 83 83 N 3 6 30.34 1028 10 16.0934 0 0
1:53 am 01:53 Cloudy 45 7.2 41 5 86 86 N 6 9 30.32 1027 10 16.0934 0 0
2:53 am 02:53 Cloudy 44 6.7 40 4.4 85 85 NNE 7 11 30.32 1027 10 16.0934 0 0
3:53 am 03:53 Cloudy 43 6.1 40 4.4 89 89 ESE 3 6 30.32 1027 10 16.0934 0 0
4:42 am 04:42 Cloudy 43 6 N/A N/A ENE 5 7 30.39 1029 10 16.0934 0 0
4:53 am 04:53 Cloudy 43 6 N/A N/A E 3 6 30.33 1027 10 16.0934 0 0
5:01 am 05:01 Cloudy 43 6 N/A N/A E 5 7 30.39 1029 10 16.0934 0 0
5:22 am 05:22 Cloudy 43 6 N/A N/A E 7 11 30.39 1029 10 16.0934 0 0
5:53 am 05:53 Cloudy 43 6 N/A N/A E 5 7 30.33 1027 10 16.0934 0 0
6:06 am 06:06 Cloudy 43 6 N/A N/A E 5 7 30.39 1029 10 16.0934 0 0
6:53 am 06:53 Cloudy 43 6 N/A N/A E 5 7 30.34 1028 10 16.0934 0 0
7:53 am 07:53 Cloudy 44 6.7 40 4.4 85 85 Calm 30.35 1028 10 16.0934 0 0
8:53 am 08:53 Cloudy 46 7.8 41 5 83 83 VRB 3 6 30.34 1028 10 16.0934 0 0
9:23 am 09:23 Cloudy 46 7.8 41 5 83 83 SSE 3 6 30.36 1028 10 16.0934 0 0
9:53 am 09:53 Cloudy 49 9.4 43 6.1 80 80 SW 5 7 30.33 1027 10 16.0934 0 0
10:21 am 10:21 Mostly Sunny 49 9.4 41 5 74 74 VRB 3 6 30.3 1026 10 16.0934 0 0
10:45 am 10:45 Mostly Cloudy 51 10.6 42 5.6 71 71 SSW 5 7 30.27 1025 10 16.0934 0 0
10:53 am 10:53 Partly Cloudy 51 10.6 42 5.6 71 71 VRB 3 6 30.3 1026 10 16.0934 0 0
11:38 am 11:38 Mostly Cloudy 54 12 43 6 67 67 VRB 5 7 30.24 1024 10 16.0934 0 0
11:53 am 11:53 Mostly Cloudy 57 13.9 43 6.1 60 60 VRB 3 6 30.27 1025 10 16.0934 0 0
12:16 pm 12:16 Partly Cloudy 57 14 43 6 59 59 VRB 5 7 30.21 1023 10 16.0934 0 0
12:53 pm 12:53 Cloudy 58 14.4 42 5.6 56 56 Calm 30.24 1024 10 16.0934 0 0
1:53 pm 13:53 Cloudy 58 14.4 40 4.4 51 51 SSW 8 13 30.22 1024 10 16.0934 0 0
2:53 pm 14:53 Mostly Cloudy 61 16.1 40 4.4 46 46 SSW 7 11 30.19 1022 10 16.0934 0 0
3:53 pm 15:53 Mostly Sunny 60 15.6 39 3.9 46 46 SSW 6 9 30.16 1022 10 16.0934 0 0
4:53 pm 16:53 Mostly Sunny 62 16.7 38 3.3 41 41 S 7 11 30.14 1021 10 16.0934 0 0
5:53 pm 17:53 Mostly Sunny 61 16.1 37 2.8 41 41 Calm 30.13 1020 10 16.0934 0 0
6:53 pm 18:53 Sunny 60 15.6 39 3.9 46 46 SE 7 11 30.11 1020 10 16.0934 0 0
7:53 pm 19:53 Clear 54 12.2 41 5 62 62 ESE 8 13 30.13 1020 10 16.0934 0 0
8:53 pm 20:53 Clear 50 10 40 4.4 68 68 ESE 6 9 30.14 1021 10 16.0934 0 0
9:53 pm 21:53 Clear 47 8.3 40 4.4 77 77 E 6 9 30.15 1021 10 16.0934 0 0
10:53 pm 22:53 Clear 44 6.7 38 3.3 79 79 ESE 7 11 30.14 1021 10 16.0934 0 0
11:53 pm 23:53 Clear 44 6.7 39 3.9 83 83 E 9 15 30.11 1020 10 16.0934 0 0

Powered by AerisWeather